• In Hungary
  • List of Countries
  • For 7 days
  • Water Temperature
  • Satellite Maps
  • Weather Map
  • News
  • Weather Widgets
  • user-avatar
    Login

    Hourly Weather Pereval's'ke

    Today, 21 October, Sunday

    Time Temperature Precipitation Wind Pressure Humidity
    00:00 +15°C° 0 mm 1 mps 754 mmHg 73%
    01:00 +14°C° 0 mm 1 mps 754 mmHg 75%
    02:00 +14°C° 0 mm 1 mps 754 mmHg 77%
    03:00 +14°C° 0 mm 1 mps 754 mmHg 80%
    04:00 +13°C° 0 mm 2 mps 754 mmHg 82%
    05:00 +13°C° 0 mm 2 mps 754 mmHg 84%
    06:00 +14°C° 0 mm 2 mps 754 mmHg 81%
    07:00 +14°C° 0 mm 2 mps 755 mmHg 78%
    08:00 +16°C° 0 mm 2 mps 755 mmHg 75%
    09:00 +17°C° 0 mm 2 mps 755 mmHg 69%
    10:00 +18°C° 0 mm 3 mps 755 mmHg 63%
    11:00 +20°C° 0 mm 3 mps 755 mmHg 58%
    12:00 +20°C° 0 mm 3 mps 756 mmHg 56%
    13:00 +20°C° 0 mm 3 mps 756 mmHg 55%
    14:00 +20°C° 0 mm 4 mps 756 mmHg 53%
    15:00 +19°C° 0 mm 4 mps 756 mmHg 56%
    16:00 +19°C° 0 mm 4 mps 756 mmHg 59%
    17:00 +18°C° 0 mm 4 mps 756 mmHg 61%
    18:00 +17°C° 0 mm 4 mps 756 mmHg 64%
    19:00 +17°C° 0 mm 4 mps 756 mmHg 66%
    20:00 +15°C° 0 mm 4 mps 757 mmHg 68%
    21:00 +14°C° 0 mm 4 mps 757 mmHg 69%
    22:00 +14°C° 0 mm 4 mps 757 mmHg 71%
    23:00 +14°C° 0 mm 4 mps 757 mmHg 73%

    Tomorrow, 22 October, Monday

    Time Temperature Precipitation Wind Pressure Humidity
    00:00 +13°C° 0 mm 4 mps 757 mmHg 75%
    01:00 +13°C° 0 mm 4 mps 757 mmHg 76%
    02:00 +13°C° 0 mm 4 mps 757 mmHg 78%
    03:00 +12°C° 0 mm 4 mps 757 mmHg 81%
    04:00 +12°C° 0 mm 4 mps 757 mmHg 83%
    05:00 +11°C° 0 mm 4 mps 757 mmHg 86%
    06:00 +11°C° 0.1 mm 4 mps 757 mmHg 85%
    07:00 +12°C° 0.1 mm 4 mps 757 mmHg 83%
    08:00 +12°C° 0.1 mm 4 mps 757 mmHg 82%
    09:00 +13°C° 0.5 mm 4 mps 757 mmHg 79%
    10:00 +13°C° 0.5 mm 4 mps 757 mmHg 75%
    11:00 +14°C° 0.5 mm 4 mps 757 mmHg 72%
    12:00 +14°C° 1.4 mm 4 mps 757 mmHg 73%
    13:00 +14°C° 1.4 mm 4 mps 756 mmHg 74%
    14:00 +14°C° 1.4 mm 4 mps 756 mmHg 75%
    15:00 +13°C° 0.7 mm 4 mps 756 mmHg 77%
    16:00 +13°C° 0.7 mm 4 mps 756 mmHg 79%
    17:00 +13°C° 0.7 mm 4 mps 755 mmHg 81%
    18:00 +12°C° 0.1 mm 3 mps 755 mmHg 83%
    19:00 +12°C° 0.1 mm 3 mps 755 mmHg 85%
    20:00 +11°C° 0.1 mm 3 mps 755 mmHg 87%
    21:00 +11°C° 0 mm 3 mps 755 mmHg 88%
    22:00 +11°C° 0 mm 3 mps 755 mmHg 89%
    23:00 +10°C° 0 mm 3 mps 755 mmHg 90%

    Day after tomorrow, 23 October, Tuesday

    Time Temperature Precipitation Wind Pressure Humidity
    00:00 +10°C° 0 mm 3 mps 755 mmHg 90%
    01:00 +10°C° 0 mm 3 mps 755 mmHg 90%
    02:00 +9°C° 0 mm 3 mps 755 mmHg 90%
    03:00 +9°C° 0 mm 3 mps 755 mmHg 89%
    04:00 +8°C° 0 mm 3 mps 755 mmHg 88%
    05:00 +8°C° 0 mm 3 mps 754 mmHg 87%
    06:00 +9°C° 0 mm 3 mps 755 mmHg 81%
    07:00 +9°C° 0 mm 3 mps 755 mmHg 75%
    08:00 +10°C° 0 mm 3 mps 755 mmHg 69%
    09:00 +11°C° 0 mm 3 mps 755 mmHg 63%
    10:00 +12°C° 0 mm 4 mps 755 mmHg 57%
    11:00 +14°C° 0 mm 4 mps 754 mmHg 51%
    12:00 +14°C° 0 mm 4 mps 754 mmHg 48%
    13:00 +14°C° 0 mm 5 mps 753 mmHg 45%
    14:00 +15°C° 0 mm 5 mps 753 mmHg 42%
    15:00 +14°C° 0 mm 4 mps 753 mmHg 44%
    16:00 +13°C° 0 mm 4 mps 752 mmHg 47%
    17:00 +12°C° 0 mm 3 mps 752 mmHg 49%
    18:00 +11°C° 0 mm 3 mps 752 mmHg 50%
    19:00 +10°C° 0 mm 3 mps 752 mmHg 52%
    20:00 +10°C° 0 mm 3 mps 752 mmHg 53%
    21:00 +9°C° 0 mm 3 mps 751 mmHg 54%
    22:00 +9°C° 0 mm 3 mps 751 mmHg 56%
    23:00 +9°C° 0 mm 3 mps 750 mmHg 57%

    24 October, Wednesday

    Time Temperature Precipitation Wind Pressure Humidity
    00:00 +8°C° 0 mm 4 mps 750 mmHg 57%
    01:00 +8°C° 0 mm 4 mps 749 mmHg 57%
    02:00 +8°C° 0 mm 4 mps 749 mmHg 57%
    03:00 +8°C° 0 mm 4 mps 748 mmHg 57%
    04:00 +8°C° 0 mm 5 mps 747 mmHg 58%
    05:00 +8°C° 0 mm 5 mps 746 mmHg 58%
    06:00 +9°C° 0.1 mm 6 mps 745 mmHg 60%
    07:00 +10°C° 0.1 mm 8 mps 745 mmHg 63%
    08:00 +10°C° 0.1 mm 9 mps 744 mmHg 65%
    09:00 +11°C° 0.8 mm 9 mps 743 mmHg 65%
    10:00 +12°C° 0.8 mm 10 mps 742 mmHg 65%
    11:00 +12°C° 0.8 mm 11 mps 741 mmHg 65%
    12:00 +12°C° 1.1 mm 10 mps 741 mmHg 67%
    13:00 +12°C° 1.1 mm 9 mps 740 mmHg 70%
    14:00 +12°C° 1.1 mm 8 mps 739 mmHg 73%
    15:00 +11°C° 1.2 mm 7 mps 739 mmHg 75%
    16:00 +11°C° 1.2 mm 7 mps 738 mmHg 78%
    17:00 +11°C° 1.2 mm 7 mps 738 mmHg 81%
    18:00 +10°C° 0.5 mm 6 mps 738 mmHg 81%
    19:00 +10°C° 0.5 mm 5 mps 738 mmHg 81%
    20:00 +9°C° 0.5 mm 5 mps 738 mmHg 81%
    21:00 +10°C° 0.1 mm 4 mps 737 mmHg 83%
    22:00 +10°C° 0.1 mm 3 mps 737 mmHg 85%
    23:00 +10°C° 0.1 mm 3 mps 737 mmHg 87%

    25 October, Thursday

    Time Temperature Precipitation Wind Pressure Humidity
    00:00 +8°C° 1.2 mm 4 mps 737 mmHg 87%
    01:00 +8°C° 1.2 mm 5 mps 737 mmHg 87%
    02:00 +7°C° 1.2 mm 6 mps 736 mmHg 86%
    03:00 +7°C° 0.6 mm 6 mps 737 mmHg 83%
    04:00 +5°C° 0.6 mm 6 mps 737 mmHg 79%
    05:00 +5°C° 0.6 mm 5 mps 737 mmHg 75%
    06:00 +4°C° 0 mm 6 mps 738 mmHg 71%
    07:00 +4°C° 0 mm 6 mps 738 mmHg 68%
    08:00 +4°C° 0 mm 6 mps 739 mmHg 64%
    09:00 +5°C° 0 mm 6 mps 739 mmHg 61%
    10:00 +7°C° 0 mm 6 mps 740 mmHg 58%
    11:00 +8°C° 0 mm 6 mps 740 mmHg 55%
    12:00 +8°C° 0 mm 6 mps 741 mmHg 54%
    13:00 +8°C° 0 mm 6 mps 741 mmHg 54%
    14:00 +8°C° 0 mm 6 mps 741 mmHg 53%
    15:00 +8°C° 0 mm 5 mps 741 mmHg 57%
    16:00 +7°C° 0 mm 4 mps 741 mmHg 60%
    17:00 +7°C° 0 mm 4 mps 742 mmHg 63%
    18:00 +6°C° 0 mm 4 mps 742 mmHg 66%
    19:00 +6°C° 0 mm 5 mps 743 mmHg 68%
    20:00 +5°C° 0 mm 5 mps 743 mmHg 71%
    21:00 +5°C° 0 mm 5 mps 744 mmHg 70%
    22:00 +5°C° 0 mm 5 mps 744 mmHg 70%
    23:00 +5°C° 0 mm 5 mps 744 mmHg 69%

    26 October, Friday

    Time Temperature Precipitation Wind Pressure Humidity
    00:00 +3°C° 0 mm 5 mps 745 mmHg 69%
    01:00 +3°C° 0 mm 5 mps 745 mmHg 70%
    02:00 +4°C° 0 mm 4 mps 745 mmHg 70%
    03:00 +4°C° 0 mm 4 mps 745 mmHg 70%
    04:00 +4°C° 0 mm 4 mps 745 mmHg 71%
    05:00 +4°C° 0 mm 4 mps 746 mmHg 71%
    06:00 +4°C° 0 mm 4 mps 746 mmHg 70%
    07:00 +4°C° 0 mm 3 mps 746 mmHg 68%
    08:00 +4°C° 0 mm 3 mps 747 mmHg 67%
    09:00 +5°C° 0 mm 3 mps 747 mmHg 63%
    10:00 +7°C° 0 mm 3 mps 747 mmHg 59%
    11:00 +8°C° 0 mm 3 mps 748 mmHg 55%
    12:00 +8°C° 0 mm 4 mps 748 mmHg 53%
    13:00 +8°C° 0 mm 4 mps 748 mmHg 50%
    14:00 +8°C° 0 mm 5 mps 749 mmHg 48%
    15:00 +8°C° 0 mm 4 mps 750 mmHg 51%
    16:00 +7°C° 0 mm 4 mps 750 mmHg 53%
    17:00 +8°C° 0 mm 3 mps 751 mmHg 56%
    18:00 +7°C° 0 mm 3 mps 752 mmHg 60%
    19:00 +7°C° 0 mm 3 mps 753 mmHg 64%
    20:00 +5°C° 0 mm 3 mps 753 mmHg 68%
    21:00 +5°C° 0 mm 3 mps 754 mmHg 69%
    22:00 +5°C° 0 mm 3 mps 754 mmHg 71%
    23:00 +5°C° 0 mm 3 mps 755 mmHg 73%
    Show more